AirNav   Pilot Hours Calculator
 
 948 users online  

42A Melbourne Municipal Airport - John E Miller Field
Melbourne, Arkansas, USA

GOING TO MELBOURNE?


FAA INFORMATION EFFECTIVE 31 DECEMBER 2020

Location

FAA Identifier: 42A
Lat/Long: 36-04-15.5000N 091-49-48.5000W
36-04.258333N 091-49.808333W
36.0709722,-91.8301389
(estimated)
Elevation: 734.8 ft. / 224.0 m (surveyed)
Variation: 01E (2005)
From city: 3 miles E of MELBOURNE, AR
Time zone: UTC -6 (UTC -5 during Daylight Saving Time)
Zip code: 72556

Airport Operations

Airport use: Open to the public
Activation date: 01/1994
Control tower: no
ARTCC: MEMPHIS CENTER
FSS: JONESBORO FLIGHT SERVICE STATION
NOTAMs facility: JBR (NOTAM-D service available)
Attendance: MON-SAT DAYLIGHT HOURS
Wind indicator: lighted
Segmented circle: yes
Lights: ACTVT MIRL RWY 03/21 - CTAF.
Beacon: white-green (lighted land airport)
Operates sunset to sunrise.

Airport Communications

CTAF: 122.9
  • APCH/DEP SVC PRVDD BY MEMPHIS ARTCC ON FREQS 126.85/281.55 (HARRISON RCAG).

Airport Services

Fuel available: 100LL JET-A
SELF SERVE FUEL H24 WITH CREDIT CARD.
Parking: hangars and tiedowns
Airframe service: MAJOR
Powerplant service: MAJOR

Runway Information

Runway 3/21

Dimensions: 4003 x 75 ft. / 1220 x 23 m
150 FT PAVED STOPWAY EACH END - FULL STRENGTH.
Surface: asphalt, in good condition
Runway edge lights: medium intensity
RUNWAY 3  RUNWAY 21
Latitude: 36-03.978357N36-04.539275N
Longitude: 091-50.021925W091-49.594312W
Elevation: 734.8 ft.708.9 ft.
Traffic pattern: leftleft
Runway heading: 031 magnetic, 032 true211 magnetic, 212 true
Markings: nonprecision, in good conditionnonprecision, in good condition
Visual slope indicator: 2-light PAPI on left (3.00 degrees glide path)2-light PAPI on left (3.00 degrees glide path)
Runway end identifier lights: yesyes
Touchdown point: yes, no lightsyes, no lights
Obstructions: 42 ft. tree, 1800 ft. from runway, 465 ft. right of centerline, 38:1 slope to clear50 ft. tree, 1550 ft. from runway, 425 ft. left of centerline, 27:1 slope to clear

Airport Ownership and Management from official FAA records

Ownership: Publicly-owned
Owner: CITY OF MELBOURNE
PO BOX 800
MELBOURNE, AR 72556
Phone 870-368-4215
Manager: KEN CLARK
P.O. BOX 800
MELBOURNE, AR 72556
Phone (870) 291-1227

Airport Operational Statistics

Aircraft based on the field: 16
Single engine airplanes: 13
Multi engine airplanes: 3
    
Aircraft operations: avg 178/day *
92% local general aviation
8% transient general aviation
<1% military
* for 12-month period ending 31 December 2019

Additional Remarks

FOR CD CTC MEMPHIS ARTCC AT 901-368-8453.

Instrument Procedures

NOTE: All procedures below are presented as PDF files. If you need a reader for these files, you should download the free Adobe Reader.

NOT FOR NAVIGATION. Please procure official charts for flight.
FAA instrument procedures published for use from 31 December 2020 at 0901Z to 28 January 2021 at 0900Z.

 
IAPs - Instrument Approach Procedures
RNAV (GPS) RWY 03   download (207KB)
RNAV (GPS) RWY 21   download (197KB)
NOTE: Special Take-Off Minimums/Departure Procedures apply   download (249KB)

Other nearby airports with instrument procedures:

6M2 - Horseshoe Bend Airport (10 nm N)
KCVK - Sharp County Regional Airport (17 nm NE)
7M2 - Mountain View Airport-Wilcox Memorial Field (18 nm SW)
KBVX - Batesville Regional Airport (23 nm SE)
KHBZ - Heber Springs Municipal Airport (35 nm S)
 
Loc | Ops | Rwys | IFR | FBO | Links
Com | Nav | Svcs | Stats | Notes
Area around 42A (Melbourne Municipal Airport - John E Miller Field)
 
Road maps at: MapQuest Bing Google
 
Aerial photo
WARNING: Photo may not be current or correct
Aerial photo of 42A (Melbourne Municipal Airport - John E Miller Field)
Photo courtesy of the Arkansas Department of Aeronautics
Taken in the Spring of 2007

Do you have a better or more recent aerial photo of Melbourne Municipal Airport - John E Miller Field that you would like to share? If so, please send us your photo.

 
Sectional chart

 
Airport distance calculator
Flying to Melbourne Municipal Airport - John E Miller Field? Find the distance to fly.

From to 42A

Sunrise and sunset
Times for 24-Jan-2021
 Local
(UTC-6)
 Zulu
(UTC)
Morning civil twilight06:4712:47
Sunrise07:1513:15
Sunset17:2423:24
Evening civil twilight17:5223:52

Current date and time
Zulu (UTC)  25-Jan-2021 01:45:52
Local (UTC-6)  24-Jan-2021 19:45:52
 
METAR
KBVX 
23nm S 
250136Z AUTO 11006KT 2 1/2SM BR OVC003 08/08 A2998 RMK AO2
KFLP 
33nm NW 
250107Z AUTO 03003KT 10SM BKN018 OVC033 10/08 A2995 RMK AO2
KBPK 
36nm NW 
250101Z AUTO 09005KT 10SM OVC014 09/07 A2994 RMK AO2 T00940072
KM19 
41nm SE 
250056Z AUTO 08004KT 10SM OVC006 08/08 A2999 RMK AO2 SLP156 T00830078
KCCA 
41nm SW 
250135Z AUTO VRB04KT 9SM OVC007 11/10 A2995 RMK AO2 LTG DSNT SW
KARG 
44nm E 
250103Z AUTO 06007KT 3/4SM BR OVC003 08/08 A3000 RMK AO2 RVRNO
TAF
KBPK 
36nm NW 
241738Z 2418/2518 VRB03KT P6SM OVC015 FM250100 10009KT 5SM -DZ BR SCT004 OVC009 FM250500 09008KT 2SM RA BR VCTS OVC005CB FM250900 11010KT 1SM RA BR VCTS BKN003 OVC005CB
NOTAMs
Click for the latest NOTAMs
NOTAMs are issued by the DoD/FAA and will open in a separate window not controlled by AirNav.

 

 
 

FBO, Fuel Providers, and Aircraft Ground Support

  
 Business Name 
 
 Contact 
 
 Services / Description 
 
Fuel Prices
 
Comments
  
Melbourne Municipal Airport 870-368-4215
no information available

If you are affiliated with Melbourne Municipal Airport and would like to show here your services, contact info, web link, logo, and more, click here
100LL Jet A
SS $3.40 $3.17 
 Updated 13-Jan-2021
 
   write
SS=Self service
Update Fuel Prices
 

Aviation Businesses, Services, and Facilities

  
 Business Name 
 
 Contact 
 
 Services / Description 
 
Distance
 
Comments
  
Emerson Air Service 870-368-4101
no information available

If you are affiliated with Emerson Air Service and would like to show here your services, contact info, web link, logo, and more, click here
on airport  
   write
 

Would you like to see your business listed on this page?

 If your business provides an interesting product or service to pilots, flight crews, aircraft, or users of the Melbourne Municipal Airport - John E Miller Field, you should consider listing it here.  To start the listing process, click on the button below
 
Add a business
 

Other Pages about Melbourne Municipal Airport - John E Miller Field

Update a link
 
Copyright © AirNav, LLC. All rights reserved. Privacy Policy  Contact